| time (UTC) | temp F | wind direction | speed knots | gust knots | rain 1hr in | rain 24hr in | rain mn in | humidity % | barometer mb |
| 20260510171851 | 66 | 10 | 4.3 | 0.0 | 0.00 | 0.00 | 0.00 | 39 | |
| 20260510163103 | 66 | 40 | 4.3 | 0.0 | 0.00 | 0.00 | 0.00 | 32 | 1009.0 |
| 20260510162154 | 66 | 40 | 6.1 | 0.0 | 0.00 | 0.00 | 0.00 | 37 | |
| 20260510160209 | 68 | 50 | 6.1 | 0.0 | 0.00 | 0.00 | 0.00 | 32 | 1010.0 |
| 20260510153102 | 68 | 50 | 5.2 | 0.0 | 0.00 | 0.00 | 0.00 | 32 | 1010.0 |
| 20260510151852 | 68 | 40 | 6.1 | 0.0 | 0.00 | 0.00 | 0.00 | 32 | |
| 20260510150208 | 68 | 50 | 5.2 | 0.0 | 0.00 | 0.00 | 0.00 | 30 | 1011.0 |
| 20260510143103 | 68 | 60 | 6.1 | 0.0 | 0.00 | 0.00 | 0.00 | 32 | 1011.0 |
| 20260510141852 | 66 | 30 | 6.1 | 0.0 | 0.00 | 0.00 | 0.00 | 34 | |
| 20260510140210 | 68 | 30 | 5.2 | 0.0 | 0.00 | 0.00 | 0.00 | 37 | 1011.0 |
| 20260510133103 | 66 | 60 | 6.1 | 0.0 | 0.00 | 0.00 | 0.00 | 42 | 1011.0 |
| 20260510131954 | 66 | 70 | 6.1 | 0.0 | 0.00 | 0.00 | 0.00 | 42 | |
| 20260510123102 | 66 | 60 | 7.0 | 0.0 | 0.00 | 0.00 | 0.00 | 45 | 1012.0 |
| 20260510121854 | 66 | 50 | 6.1 | 0.0 | 0.00 | 0.00 | 0.00 | 48 | |
| 20260510120103 | 64 | 50 | 7.0 | 0.0 | 0.00 | 0.00 | 0.00 | 48 | 1013.0 |
| 20260510113103 | 64 | 50 | 7.0 | 0.0 | 0.00 | 0.00 | 0.00 | 52 | 1013.0 |
| 20260510111854 | 64 | 60 | 7.8 | 0.0 | 0.00 | 0.00 | 0.00 | 48 | |
| 20260510110212 | 64 | 60 | 7.0 | 0.0 | 0.00 | 0.00 | 0.00 | 52 | 1013.0 |
| 20260510103103 | 63 | 70 | 7.0 | 0.0 | 0.00 | 0.00 | 0.00 | 51 | 1014.0 |
| 20260510102154 | 63 | 70 | 10.4 | 0.0 | 0.00 | 0.00 | 0.00 | 48 | |
| 20260510100211 | 61 | 70 | 8.7 | 0.0 | 0.00 | 0.00 | 0.00 | 51 | 1014.0 |
| 20260510093102 | 59 | 80 | 7.0 | 0.0 | 0.00 | 0.00 | 0.00 | 54 | 1014.0 |
| 20260510091852 | 59 | 90 | 7.8 | 0.0 | 0.00 | 0.00 | 0.00 | 54 | |
| 20260510090210 | 61 | 80 | 7.8 | 0.0 | 0.00 | 0.00 | 0.00 | 51 | 1015.0 |
| 20260510083103 | 57 | 70 | 5.2 | 0.0 | 0.00 | 0.00 | 0.00 | 62 | 1015.0 |
| 20260510081853 | 55 | 50 | 4.3 | 0.0 | 0.00 | 0.00 | 0.00 | 62 | |
| 20260510080211 | 55 | 60 | 5.2 | 0.0 | 0.00 | 0.00 | 0.00 | 62 | 1015.0 |
| 20260510073102 | 54 | 50 | 5.2 | 0.0 | 0.00 | 0.00 | 0.00 | 71 | 1016.0 |
| 20260510071953 | 54 | 30 | 4.3 | 0.0 | 0.00 | 0.00 | 0.00 | 66 | |
| 20260510070213 | 54 | 30 | 4.3 | 0.0 | 0.00 | 0.00 | 0.00 | 71 | 1016.0 |
| 20260510063102 | 52 | 50 | 4.3 | 0.0 | 0.00 | 0.00 | 0.00 | 76 | 1016.0 |
| 20260510061855 | 50 | 170 | 1.7 | 0.0 | 0.00 | 0.00 | 0.00 | 76 | |
| 20260510060210 | 52 | 0 | 0.0 | 0.0 | 0.00 | 0.00 | 0.00 | 71 | 1016.0 |
| 20260510053103 | 50 | 0 | 0.0 | 0.0 | 0.00 | 0.00 | 0.00 | 76 | 1016.0 |
| 20260510051853 | 48 | 80 | 1.7 | 0.0 | 0.00 | 0.00 | 0.00 | 76 | |
| 20260510050211 | 46 | 0 | 1.7 | 0.0 | 0.00 | 0.00 | 0.00 | 81 | 1016.0 |
| 20260510043102 | 43 | 180 | 0.9 | 0.0 | 0.00 | 0.00 | 0.00 | 86 | 1017.0 |
| 20260510042153 | 43 | 120 | 1.7 | 0.0 | 0.00 | 0.00 | 0.00 | 86 | |
| 20260510040212 | 43 | 0 | 0.9 | 0.0 | 0.00 | 0.00 | 0.00 | 86 | 1016.0 |
| 20260510033103 | 43 | 80 | 5.2 | 0.0 | 0.00 | 0.00 | 0.00 | 93 | 1016.0 |
| 20260510031851 | 43 | 70 | 4.3 | 0.0 | 0.00 | 0.00 | 0.00 | 86 | |
| 20260510030210 | 43 | 70 | 4.3 | 0.0 | 0.00 | 0.00 | 0.00 | 93 | 1016.0 |
| 20260510023210 | 45 | 80 | 2.6 | 0.0 | 0.00 | 0.00 | 0.00 | 87 | 1017.0 |
| 20260510021852 | 43 | 70 | 1.7 | 0.0 | 0.00 | 0.00 | 0.00 | 93 | |
| 20260510020212 | 43 | 0 | 0.9 | 0.0 | 0.00 | 0.00 | 0.00 | 93 | 1017.0 |
| 20260510013103 | 45 | 50 | 4.3 | 0.0 | 0.00 | 0.00 | 0.00 | 87 | 1017.0 |
| 20260510012054 | 43 | 50 | 6.1 | 0.0 | 0.00 | 0.00 | 0.00 | 86 | |
| 20260510010211 | 45 | 50 | 5.2 | 0.0 | 0.00 | 0.00 | 0.00 | 87 | 1017.0 |
| 20260510003103 | 46 | 40 | 2.6 | 0.0 | 0.00 | 0.00 | 0.00 | 81 | 1018.0 |
| 20260510001853 | 46 | 90 | 4.3 | 0.0 | 0.00 | 0.00 | 0.00 | 75 | |
| 20260510000103 | 48 | 80 | 2.6 | 0.0 | 0.00 | 0.00 | 0.00 | 76 | 1018.0 |
| 20260509233103 | 48 | 110 | 2.6 | 0.0 | 0.00 | 0.00 | 0.00 | 76 | 1018.0 |
| 20260509231852 | 46 | 90 | 6.1 | 0.0 | 0.00 | 0.00 | 0.00 | 81 | |
| 20260509230209 | 48 | 90 | 5.2 | 0.0 | 0.00 | 0.00 | 0.00 | 76 | 1018.0 |
| 20260509223104 | 50 | 80 | 6.1 | 0.0 | 0.00 | 0.00 | 0.00 | 71 | 1018.0 |
| 20260509222154 | 48 | 80 | 7.8 | 0.0 | 0.00 | 0.00 | 0.00 | 76 | |
| 20260509220210 | 52 | 80 | 7.0 | 0.0 | 0.00 | 0.00 | 0.00 | 71 | 1018.0 |
| 20260509214301 | 52 | 90 | 6.1 | 0.0 | 0.00 | 0.00 | 0.00 | 71 | 1018.0 |
| 20260509213103 | 48 | 110 | 5.2 | 0.0 | 0.00 | 0.00 | 0.00 | 76 | 1019.0 |
| 20260509211852 | 48 | 90 | 4.3 | 0.0 | 0.00 | 0.00 | 0.00 | 76 | |
| 20260509210211 | 50 | 90 | 5.2 | 0.0 | 0.00 | 0.00 | 0.00 | 76 | 1019.0 |
| 20260509203102 | 52 | 80 | 5.2 | 0.0 | 0.00 | 0.00 | 0.00 | 71 | 1019.0 |
| 20260509201851 | 50 | 70 | 6.1 | 0.0 | 0.00 | 0.00 | 0.00 | 71 | |
| 20260509200210 | 52 | 70 | 5.2 | 0.0 | 0.00 | 0.00 | 0.00 | 71 | 1019.0 |
| 20260509193103 | 54 | 70 | 6.1 | 0.0 | 0.00 | 0.00 | 0.00 | 66 | 1018.0 |
| 20260509191953 | 52 | 70 | 6.1 | 0.0 | 0.00 | 0.00 | 0.00 | 71 | |
| 20260509190211 | 54 | 70 | 5.2 | 0.0 | 0.00 | 0.00 | 0.00 | 66 | 1018.0 |
| 20260509183102 | 55 | 60 | 5.2 | 0.0 | 0.00 | 0.00 | 0.00 | 62 | 1018.0 |
| 20260509181851 | 55 | 70 | 7.8 | 0.0 | 0.00 | 0.00 | 0.00 | 62 | |
| 20260509180213 | 57 | 70 | 7.8 | 0.0 | 0.00 | 0.00 | 0.00 | 58 | 1018.0 |
| 20260509173103 | 59 | 60 | 7.0 | 0.0 | 0.00 | 0.00 | 0.00 | 54 | 1018.0 |